User: anonymous   Login
Location: Mount Kobau Star Party
(49.1167°N, 119.7333°W)
Time: 01:57:45
(UTC-07:00)
Language:

TSX-5 - Orbit

View from above orbital plane
View from above orbital plane
View from above satellite
View from above satellite

Ground track
Ground track

The orbit data is extracted from the following two-line orbital elements,

1 26374U 00030A   18111.55987147 +.00001499 +00000-0 +13068-3 0  9997
2 26374 068.9293 166.6817 0648665 283.8327 069.1453 14.06045337899438
Epoch (UTC): 21 April 2018 13:26:12
Eccentricity: 0.0648665
inclination: 68.9293°
perigee height: 402 km
apogee height: 1343 km
right ascension of ascending node: 166.6817°
argument of perigee: 283.8327°
revolutions per day: 14.06045337
mean anomaly at epoch: 69.1453°
orbit number at epoch: 89943

The dashed part of the orbit path shows where the satellite is in the earth's shadow,  

DLR